Regional Weather Roundup
Issued by NWS

Home | Current Version | Previous Version | Graphics & Text | Print | Product List | Glossary On
Versions: 1 2 3 4 5 6 7 8 9 10 11 12 13 14 15 16 17 18 19 20 21 22 23 24 25 26 27 28 29 30 31 32 33 34 35 36 37 38 39 40 41 42 43 44 45 46 47 48 49 50
000
ASUS45 KTFX 011304
RWRMT
MONTANA HOURLY WEATHER ROUNDUP
NATIONAL WEATHER SERVICE GREAT FALLS MT
704 AM MDT WED OCT 1 2014

NOTE: "FAIR" INDICATES FEW OR NO CLOUDS BELOW 12000 FEET WITH NO
SIGNIFICANT WEATHER AND/OR OBSTRUCTIONS TO VISIBILITY.

* THESE STATIONS ARE NOT UNDER NWS QUALITY CONTROL. THEY DO NOT
   REPORT WEATHER SUCH AS PRECIPITATION OR FOG.

MTZ001>007-043-011400-
WEST OF THE DIVIDE
CITY           SKY/WX    TMP DP  RH WIND       PRES   REMARKS
KALISPELL      FOG       39  39 100 CALM      30.01R VSB 3/4
MISSOULA       CLOUDY    45  39  80 SW3       30.06R
BUTTE          CLOUDY    37  34  89 S3        30.03R
MULLAN PASS    FOG       32  32 100 VRB3      30.04R VSB M1/4
* ESSEX        N/A       41  40  96 N/A        N/A
* LINCOLN      N/A       41  35  79 S4G9       N/A
* LOOKOUT PASS N/A       36  36 100 N/A        N/A
* RONAN APT    CLEAR     46  41  83 N/A        N/A
* SEELEY LAKE  N/A       36  35  96 N/A        N/A
* THOMP F APT  CLEAR     36  25  64 N10G23     N/A   WCI  29
* YAAK HILL    N/A       39  37  93 SE1        N/A
$$

MTZ008-052>055-011400-
SOUTHWEST MONTANA
CITY           SKY/WX    TMP DP  RH WIND       PRES   REMARKS
BOZEMAN        CLOUDY    39  36  89 S3        30.00R
DILLON         CLOUDY    36  30  79 CALM      30.01R
W YELLOWSTONE  CLOUDY    32  32 100 CALM      30.01R
* THREE FORKS  MOCLDY    41  16  36 N/A        N/A
* BOULDER HILL N/A       40  25  55 N1         N/A
* MONIDA PASS  N/A       31  28  89 NW8        N/A   WCI  24
* RAYNOLDS PAS N/A       32 -10  15 NE9        N/A   WCI  24
* WHITEHALL    N/A       40  34  79 SW4        N/A
* WISE RIVER   N/A       38  31  76 NW7        N/A   WCI  33
$$

MTZ009>010-012-014-046-048-049-054-011400-
EAST SLOPES AND CENTRAL MONTANA
CITY           SKY/WX    TMP DP  RH WIND       PRES   REMARKS
CUT BANK       PTCLDY    37  34  89 W12       29.94R WCI  29
GREAT FALLS    CLOUDY    43  41  93 SW9       29.94R
HELENA         LGT RAIN  46  37  71 W9        29.98R
MALMSTROM AFB  CLOUDY    45  41  86 W10       29.96R
* CONRAD       PTCLDY    45  37  74 W8         N/A
* DEARBORN     N/A       44  42  93 SE1        N/A
* EAST GLACIER N/A       36  33  89 W4         N/A
* MONARCH      N/A       38  33  82 W5         N/A   WCI  34
* PENDROY      N/A       39  32  76 NW9        N/A   WCI  33
* ROGERS PASS  N/A       38  34  86 E4         N/A
* SAINT MARY   N/A       40  36  86 S5G12      N/A   WCI  36
* SWEET GRASS  N/A       39  38  96 NW13       N/A   WCI  31
$$

MTZ011-013-016-021-035-040-045-047-050-051-011400-
NORTH CENTRAL MONTANA
CITY           SKY/WX    TMP DP  RH WIND       PRES   REMARKS
HAVRE          CLOUDY    45  39  80 W7        29.88R
LEWISTOWN      CLOUDY    45  39  80 W9        29.93R
* DENTON       N/A       45  40  83 W17G22     N/A
* JUDITH GAP   N/A       41  39  93 NW7G14     N/A
* LOMA         N/A       47  41  80 SW9G14     N/A
$$

MTZ017>020-022>027-061-062-011400-
NORTHEAST MONTANA
CITY           SKY/WX    TMP DP  RH WIND       PRES   REMARKS
GLASGOW        CLOUDY    50  45  83 W16       29.73R
GLENDIVE       CLOUDY    50  45  83 W20G28    29.74R
JORDAN         PTCLDY    48  43  83 W20       29.80R
SIDNEY         CLOUDY    52  46  80 W15G23    29.69R
WOLF POINT     CLOUDY    52  46  80 W17G26    29.71R
* BEAVER HILL  N/A       49  46  89 W24G32     N/A
* CIRCLE       N/A       49  47  93 W6G15      N/A
* LINDSAY DVD  N/A       47  45  93 W24G30     N/A
* NAVAJO       N/A       49  48  96 NW22G28    N/A
$$

MTZ028>042-056>058-011400-
SOUTHCENTRAL AND SOUTHEAST MONTANA
CITY           SKY/WX    TMP DP  RH WIND       PRES   REMARKS
BAKER          CLOUDY    48  46  93 W21G28    29.77R
BILLINGS       MOCLDY    46  36  68 W7        29.92R
LIVINGSTON     CLOUDY    41  32  70 W6        29.97R
MILES CITY     CLOUDY    50  41  71 W20G26    29.82R
* LAUREL APT   CLOUDY    45  30  56 N/A        N/A
* ROUNDUP APT  MOCLDY    46  34  63 N/A        N/A
* ALZADA       N/A       49  46  89 W11        N/A
* HYSHAM       N/A       47  38  71 W9         N/A
* LAME DEER    N/A       44  39  83 NW7G15     N/A
* REED POINT   N/A       47  29  50 W13G18     N/A
* ROSCOE HILL  N/A       40  21  47 SW3G9      N/A
$$

REGIONAL REPORTS...DAKOTAS
CITY           SKY/WX    TMP DP  RH WIND       PRES   REMARKS
WILLISTON      CLOUDY    54  48  80 W20G28    29.61R
DICKINSON      MOCLDY    52  48  86 W22G28    29.65R
BEACH          N/A       48  48 100 W21G29    29.72R
CROSBY         N/A      N/A N/A N/A N/A        N/A
TIOGA          FOG       50  50 100 W18G26    29.58R VSB 2
WATFORD CITY   CLOUDY    50  50 100 W18G25    29.60R
BISMARCK       CLOUDY    55  50  83 W13G23    29.63R
GRAND FORKS    CLOUDY    57  54  90 S12G17    29.55S
FARGO          PTCLDY    59  55  87 S13       29.64R
BUFFALO SD     PTCLDY    52  48  86 NW16      29.70R
RAPID CITY     MOCLDY    48  45  89 N10       29.79R
$$

REGIONAL REPORTS...WYOMING/IDAHO/WASHINGTON
CITY           SKY/WX    TMP DP  RH WIND       PRES   REMARKS
GILLETTE       CLOUDY    46  41  83 NW14      29.87R
SHERIDAN       CLOUDY    46  41  83 NW7       29.91R
CODY           CLOUDY    43  43 100 CALM      29.92R
YELLOWSTONE LA MOCLDY    30  27  89 CALM      30.02R
SALMON         CLOUDY    43  37  79 CALM      30.07R
MULLAN PASS    FOG       32  32 100 VRB3      30.04S VSB M1/4
SAND POINT     FOG       37  37 100 CALM      30.07R VSB M1/4
SPOKANE        CLEAR     37  34  89 S9        30.08R WCI  30
$$

REGIONAL REPORTS...SASKATCHEWAN
CITY           SKY/WX    TMP DP  RH WIND       PRES   REMARKS
SWIFT CURRENT  CLOUDY    45  43  93 NW18G25   29.71R

$$



USA.gov is the U.S. government's official web portal to all federal, state and local government web resources and services.